Location: Buchloe
(48.0161°N, 10.7316°E)
Time: 03:53:00
(UTC+02:00)

ISS - Pass Details

Date: 12 July 2025
Orbit: 413 x 417 km, 51.6° (Epoch: 12 July)

Event Time Altitude Azimuth Distance (km) Brightness Sun altitude
Rises 22:44:56 0° 264° (W) 2,347 0.5 -11.7°
Reaches altitude 10° 22:47:03 10° 269° (W) 1,486 -0.5 -11.9°
Maximum altitude 22:50:19 52° 347° (NNW) 521 -2.9 -12.2°
Drops below altitude 10° 22:53:36 10° 66° (ENE) 1,491 -1.1 -12.6°
Sets 22:55:44 0° 71° (ENE) 2,356 -0.1 -12.8°
